User: anonymous   Login
Location: Observatorio Las Palmas
(29.0667°N, 110.9333°W)
Time: 02:28:17
(UTC-07:00)
Language:

Skynet4D Del rocket - Orbit

View from above orbital plane
View from above orbital plane
View from above satellite
View from above satellite

Ground track
Ground track

The orbit data is extracted from the following two-line orbital elements,

1 25135U 98002B   14297.12234260  .00000263  00000-0  12903-3 0  2394
2 25135 026.8828 237.8965 0356834 059.6041 047.4019 13.62269196836542
Epoch (UTC): 24 October 2014 02:56:10
Eccentricity: 0.0356834
inclination: 26.8828°
perigee height: 763 km
apogee height: 1292 km
right ascension of ascending node: 237.8965°
argument of perigee: 59.6041°
revolutions per day: 13.62269196
mean anomaly at epoch: 47.4019°
orbit number at epoch: 83654

The dashed part of the orbit path shows where the satellite is in the earth's shadow,  

DLR